Погода в Эль-Пасо

США     31°45′32″N   106°29′12″W
темп.,
°C
ветер,
м/с
пор.,
м/с
влажн.,
%
обл.,
%
осадки,
мм/ч
давл.,
гПа
погр.,
м
16 октября, сб
сб1601:00+16в612220 0.0 1023596
04:00+14в612260 0.0 1024552
07:00+12в712320 0.0 1025511
10:00+13в7113225 0.0 1027613
13:00+18в68235 0.0 1025989
16:00+22вюв782046 0.0 10201426
19:00+22вюв57220 0.0 10201208
22:00+18в71121100 0.0 1022562
17 октября, вс
вс1701:00+16в582296 0.0 1023453
04:00+15в35255 0.0 1023310
07:00+14в34285 0.0 1022244
10:00+15в34280 0.0 1022349
13:00+20вюв45280 0.0 1020876
16:00+24юв352896 0.0 10141379
19:00+25юв24295 0.0 10121119
22:00+23юв23345 0.0 101486
18 октября, пн
пн1801:00+21юв46429 0.0 1014246
04:00+19юв2347100 0.0 1013125
07:00+18ююз11525 0.0 101324
10:00+20зюз124413 0.0 1014254
13:00+25зюз810271 0.0 10121882
16:00+27зюз79190 0.0 10092491
19:00+26з710170 0.0 10091956
22:00+23з510210 0.0 1011722
19 октября, вт
вт1901:00+21зюз512340 0.0 1012510
04:00+18з37400 0.0 1012278
07:00+17з26420 0.0 1013304
10:00+18з23450 0.0 1015315
13:00+22з57312 0.0 10141626
16:00+25зюз67230 0.0 10112070
19:00+24з57220 0.0 10111431
22:00+22зсз23250 0.0 1013198
20 октября, ср
ср2001:00+20сз23260 0.0 1014116
04:00+19зсз23270 0.0 1016103
07:00+18сз23280 0.0 101776
10:00+19с22264 0.0 1019174
13:00+23сз11214 0.0 1019817
16:00+25з1217100 0.0 10161557
19:00+25зюз1217100 0.0 10151339
22:00+23ссз1219100 0.0 1016105